Regional Weather Roundup
Issued by NWS Charleston, WV

Home | Current Version | Previous Version | Graphics & Text | Print | Product List | Glossary On
Versions: 1 2 3 4 5 6 7 8 9 10 11 12 13 14 15 16 17 18 19 20 21 22 23 24 25 26 27 28 29 30 31 32 33 34 35 36 37 38 39 40 41 42 43 44 45 46 47 48 49 50
000
ASUS41 KRLX 281210
RWRRLX
West Virginia Regional Weather Roundup
National Weather Service Charleston WV
700 AM EST FRI NOV 28 2014

Note: "fair" indicates few or no clouds below 12,000 feet with no
significant weather and/or obstructions to visibility.

WVZ003-281300-
Northern Panhandle of West Virginia

CITY           SKY/WX    TMP DP  RH WIND       PRES   REMARKS
WHEELING       CLOUDY    25  19  78 W8        30.31R
$$

WVZ009-281300-
Northwest West Virginia

CITY           SKY/WX    TMP DP  RH WIND       PRES   REMARKS
PARKERSBURG    MOCLDY    26  19  74 W6        30.39R
$$

WVZ006-281300-
Western West Virginia

CITY           SKY/WX    TMP DP  RH WIND       PRES   REMARKS
HUNTINGTON     CLOUDY    27  20  75 NW3       30.38S
$$

WVZ015-281300-
West Central West Virginia

CITY           SKY/WX    TMP DP  RH WIND       PRES   REMARKS
CHARLESTON     CLOUDY    28  16  60 NW8       30.37R
$$

WVZ022-031-281300-
North Central West Virginia

CITY           SKY/WX    TMP DP  RH WIND       PRES   REMARKS
CLARKSBURG     MOCLDY    25  19  78 W5        30.32R
MORGANTOWN     CLOUDY    27  17  66 VRB7      30.30R
$$

WVZ025-035-042-045-281300-
Southern West Virginia

CITY           SKY/WX    TMP DP  RH WIND       PRES   REMARKS
BECKLEY        CLOUDY    22  17  81 N12       30.25R
LOGAN          CLOUDY    27  21  80 NW5       30.33R
BLUEFIELD      CLOUDY    23  14  68 NW12      30.25R
LEWISBURG      FLURRIES  26  18  71 N7        30.26R
$$

WVZ047-281300-
Northern Mountains of West Virginia

CITY           SKY/WX    TMP DP  RH WIND       PRES   REMARKS
ELKINS         LGT SNOW  23  19  85 NW8       30.27R FOG
$$

WVZ052-281300-
Eastern Panhandle of West Virginia

CITY           SKY/WX    TMP DP  RH WIND       PRES   REMARKS
MARTINSBURG    CLOUDY    33  17  51 W18G24    30.25R
PETERSBURG     CLOUDY    29  24  81 CALM      30.30R
$$


USA.gov is the U.S. government's official web portal to all federal, state and local government web resources and services.